Location: Julian California
(33.0790°N, 116.6010°W)
Time: 16:47:22
(UTC-07:00)

Cosmos 1269 Rocket - Pass Details

Date: 14 June 2018
Orbit: 772 x 780 km, 74.1° (Epoch: 19 October)

Event Time Altitude Azimuth Distance (km) Brightness Sun altitude
Exits shadow 22:52:25 76° 260° (W) 805 4.0 -27.4°
Maximum altitude 22:52:38 77° 287° (WNW) 800 4.0 -27.4°
Drops below altitude 10° 22:57:56 10° 13° (NNE) 2,333 7.1 -27.9°
Sets 23:00:20 0° 15° (NNE) 3,263 7.9 -28.2°
